Voltar ao catálogo

FENGYUN 1C DEB

AtivoPO
NORAD 29810·DEBRIS·🇨🇳 China

Lançado May 10, 1999 de Taiyuan Satellite Launch Center

Loading…

Próximas Passagens (próximas 24 horas)

TLE

AtualizadoSource: Space-Track

Época: Sep 14, 2026, 02:26 UTC

1 29810U 99025DC  26257.10169550  .00000328  00000-0  14457-3 0  9991
2 29810  99.1713 313.7665 0065482 304.4027  84.8720 14.29457041 23087

Acompanhe FENGYUN 1C DEB em tempo real com AllMySat

Download on the App Store